Location: Bosmont
(49.7318°N, 3.8587°E)
Time: 05:52:34
(UTC+00:00)

Cosmos 2369 Rocket - Pass Details

Date: 08 February 2023
Orbit: 829 x 852 km, 71.0° (Epoch: 30 March)

Event Time Altitude Azimuth Distance (km) Brightness Sun altitude
Rises 20:39:35 0° 331° (NNW) 3,383 6.0 -36.8°
Reaches altitude 10° 20:42:03 10° 334° (NNW) 2,446 5.1 -37.2°
Enters shadow 20:43:56 22° 338° (NNW) 1,757 4.2 -37.5°
